Location: Observatoire de Paris
(48.8363°N, 2.3365°E)
Time: 08:06:02
(UTC+01:00)

Transit 2A Rocket - Visible Passes

Search period start: 24 July 2021 00:00
Search period end: 03 August 2021 00:00
Orbit: 590 x 913 km, 66.7° (Epoch: 23 July)

Date Brightness Start Highest point End Pass type
(mag) Time Alt. Az. Time Alt. Az. Time Alt. Az.
24 Jul 5.8 00:46:23 10° NNW 00:51:36 52° NE 00:55:35 19° ESE visible
24 Jul 5.9 02:29:13 10° NW 02:34:04 33° WSW 02:35:25 30° SW visible
24 Jul 7.6 22:22:07 10° N 22:24:42 14° NNE 22:27:23 10° NE visible
25 Jul 6.4 00:03:53 10° NNW 00:08:47 36° NE 00:13:19 13° ESE visible
25 Jul 5.3 01:46:18 10° NW 01:51:35 52° WSW 01:53:09 40° SSW visible
25 Jul 7.7 21:39:40 10° N 21:41:26 12° NNE 21:43:15 10° NNE visible
25 Jul 6.8 23:21:25 10° NNW 23:25:51 26° NE 23:30:35 10° E visible
26 Jul 5.0 01:03:34 10° NW 01:09:00 81° WSW 01:10:59 43° SSE visible
26 Jul 6.9 02:47:44 10° WNW 02:50:50 16° WSW 02:50:50 16° WSW visible
26 Jul 7.2 22:38:58 10° NNW 22:42:49 20° NNE 22:46:53 10° ENE visible
27 Jul 5.3 00:20:57 10° NNW 00:26:20 68° NE 00:28:55 33° SE visible
27 Jul 6.3 02:04:09 10° WNW 02:08:35 25° WSW 02:08:47 25° WSW visible
27 Jul 7.4 21:56:33 10° NNW 21:59:41 16° NNE 22:02:59 10° ENE visible
27 Jul 5.9 23:38:24 10° NNW 23:43:33 46° NE 23:46:56 22° ESE visible
28 Jul 5.7 01:21:04 10° NW 01:26:09 39° WSW 01:26:47 38° SW visible
28 Jul 7.5 21:14:06 10° N 21:16:28 13° NNE 21:18:56 10° NE visible
28 Jul 6.4 22:55:54 10° NNW 23:00:41 32° NE 23:05:00 14° E visible
29 Jul 5.2 00:38:13 10° NW 00:43:37 62° WSW 00:44:52 49° S visible
29 Jul 7.3 02:23:49 10° W 02:24:44 11° W 02:24:44 11° W visible
29 Jul 6.9 22:13:26 10° NNW 22:17:43 24° NE 22:22:17 10° E visible
29 Jul 5.1 23:55:32 10° NW 00:01:00 87° NE 00:03:00 43° SE visible
30 Jul 6.8 01:39:15 10° WNW 01:42:52 19° WSW 01:42:52 19° WSW visible
30 Jul 7.2 21:30:59 10° NNW 21:34:39 18° NNE 21:38:31 10° ENE visible
30 Jul 5.5 23:12:56 10° NNW 23:18:17 59° NE 23:21:11 29° ESE visible
31 Jul 6.2 00:55:55 10° NW 01:00:40 30° WSW 01:01:03 29° WSW visible
31 Jul 6.0 22:30:24 10° NNW 22:35:29 41° NE 22:39:25 18° ESE visible
01 Aug 5.6 00:12:56 10° NW 00:18:13 46° WSW 00:19:18 41° SSW visible
01 Aug 6.5 21:47:55 10° NNW 21:52:35 29° NE 21:57:34 10° E visible
01 Aug 5.2 23:30:10 10° NW 23:35:39 72° WSW 23:37:34 43° SSE visible
02 Aug 7.2 01:14:45 10° WNW 01:17:26 14° WSW 01:17:26 14° WSW visible
02 Aug 6.9 21:05:27 10° NNW 21:09:35 22° NNE 21:13:56 10° E visible
02 Aug 5.2 22:47:30 10° NNW 22:53:00 76° NE 22:55:53 31° SE visible
